sat.trackr.live / text

‹ back to catalog

STARLINK-2685

NORAD 48468 · 2021-040AS

PAYLOAD ACTIVE UNKNOWN

§ Identity

Operator
Country
US
Launch date
2021-05-09
Launch site
AFETR
Launch vehicle
Mass (kg)
RCS (m²)

Purposes: comms

External: N2YO · Heavens-Above · Gunter

§ Orbital elements

Epoch: 2026-05-25T02:53:51.718272Z

Period
94.01 min
Inclination
53.1574°
Eccentricity
0.0001572
Mean motion
15.31699970 rev/d
Perigee alt
469.7 km
Apogee alt
471.8 km
Semi-major
6,848.9 km
B*
3.9380e-5
RAAN
195.8878°
Arg perigee
86.0631°
Mean anomaly
274.0550°
Rev number
27,821

§ Raw data

STARLINK-26851 48468U 21040AS  26145.12073748  .00000857  00000+0  39380-4 0  99932 48468  53.1574 195.8878 0001572  86.0631 274.0550 15.31699970278215

JSON: /api/v1/satellites/48468 · /tle

For live sub-satellite position, see the globe view (requires WebGL).

§ Visibility from observer

Set your observer location to see the next 7 days of passes ≥ 10°. The values pass through the URL so the page stays shareable.

No JS? Fill the form by hand. The geolocation button needs JavaScript.